Location: Jalan Sepang
(2.8072°N, 101.8021°E)
Time: 04:52:31
(UTC+00:00)

ARIANE 5 DEB (SYLDA) - Pass Details

Date: 15 May 2026
Orbit: 537 x 17579 km, 2.4° (Epoch: 7 June)

Event Time Altitude Azimuth Distance (km) Brightness Sun altitude
Rises 12:47:22 0° 263° (W) 5,249 8.8 -22.1°
Reaches altitude 10° 12:52:06 10° 260° (W) 3,061 7.4 -23.2°
Enters shadow 12:57:33 54° 199° (SSW) 770 3.4 -24.5°
